Location: Lake Runnemede Observatory
(43.4843°N, 72.3851°W)
Time: 01:27:24
(UTC-04:00)

Amateur Radio Satellites - All Passes

Search period start: 30 July 2016 00:57
Search period end: 31 July 2016 00:57
Location: Lake Runnemede Observatory, 43.4843°N, 72.3851°W

Satellite Date Start Highest point End Downlink Frequencies (MHz)
Time Altitude Azimuth
BEESAT 3 30 Jul 01:03:09 01:04:53 12° 36° (NE) 01:06:36 437.485
SPROUT 30 Jul 01:05:10 01:08:52 28° 265° (W) 01:12:35 437.525
GONETS M04 30 Jul 01:14:28 01:22:09 32° 68° (ENE) 01:29:48
BEESAT 2 30 Jul 01:16:20 01:16:51 10° 33° (NNE) 01:17:20 435.950
ISS 30 Jul 01:19:40 01:22:35 29° 19° (NNE) 01:25:30 145.825
JAS-2 30 Jul 01:32:02 01:37:24 89° 283° (WNW) 01:43:16 435.910
NANOSAT C BR1 30 Jul 01:38:08 01:41:19 21° 295° (WNW) 01:44:29 145.865
SWISSCUBE 30 Jul 01:39:09 01:43:34 37° 69° (ENE) 01:47:58 437.505
DUCHIFAT 1 30 Jul 01:40:55 01:44:05 20° 295° (WNW) 01:47:14 145.980
BUGSAT 1 30 Jul 01:42:09 01:46:09 40° 289° (WNW) 01:50:07 437.445
Cosmos 2499 30 Jul 01:47:11 01:54:05 33° 68° (ENE) 02:00:32 435.465 / 435.565
TISAT 1 30 Jul 01:49:09 01:53:02 37° 262° (W) 01:56:59 437.305
Oscar 19 30 Jul 01:52:59 01:57:53 42° 98° (E) 02:02:46 437.125/150
Gurwin Techsat 1B 30 Jul 01:58:44 02:02:50 22° 93° (E) 02:06:54 435.225
BEESAT 30 Jul 01:59:52 02:04:31 54° 71° (ENE) 02:09:12 436.000
QB50P1 30 Jul 02:03:47 02:05:18 12° 300° (WNW) 02:06:49 145.935-145.965
POPSAT HIP 1 30 Jul 02:11:32 02:12:00 10° 301° (WNW) 02:12:27 437.405
MOZHAYETS 4 30 Jul 02:17:18 02:18:36 11° 59° (ENE) 02:19:54
ITUPSAT 1 30 Jul 02:24:53 02:29:42 89° 252° (WSW) 02:34:32 437.325
BEESAT 3 30 Jul 02:39:14 02:43:13 81° 54° (NE) 02:47:10 437.485
BEESAT 2 30 Jul 02:51:33 02:55:32 59° 53° (NE) 02:59:28 435.950
KKS-1 30 Jul 02:54:36 02:58:08 24° 65° (ENE) 03:01:41 437.445
ISS 30 Jul 02:55:58 02:59:10 54° 218° (SW) 03:02:21 145.825
PCSat 30 Jul 02:57:24 03:02:13 31° 48° (NE) 03:06:59 145.827
GONETS M04 30 Jul 03:10:53 03:19:30 61° 268° (W) 03:28:07
SWISSCUBE 30 Jul 03:17:31 03:21:26 25° 265° (W) 03:25:23 437.505
JAS-2 30 Jul 03:19:28 03:21:51 13° 302° (WNW) 03:24:19 435.910
CUSAT 1 30 Jul 03:23:24 03:27:05 51° 98° (E) 03:30:03 437.405
STARS 30 Jul 03:24:42 03:28:15 24° 66° (ENE) 03:31:50 437.465
Oscar 19 30 Jul 03:32:44 03:37:00 27° 295° (WNW) 03:41:16 437.125/150
ITAMSAT 1 30 Jul 03:34:01 03:39:06 53° 100° (E) 03:44:08 435.822/435.867
Gurwin Techsat 1B 30 Jul 03:37:55 03:43:03 50° 290° (WNW) 03:48:10 435.225
BEESAT 30 Jul 03:39:28 03:42:37 17° 268° (W) 03:45:48 436.000
Cosmos 2499 30 Jul 03:40:05 03:47:30 50° 271° (W) 03:54:24 435.465 / 435.565
AIST 2 30 Jul 03:41:24 03:43:53 15° 38° (NE) 03:46:20 435.215
CUBESAT XI-V 30 Jul 03:45:04 03:46:22 11° 59° (ENE) 03:47:40 437.345
AO-7 30 Jul 03:46:12 03:53:39 34° 97° (E) 04:01:00 29.400- 29.500
MOZHAYETS 4 30 Jul 03:50:24 03:55:02 89° 66° (ENE) 03:59:41
DANDE 30 Jul 04:14:09 04:19:22 75° 99° (E) 04:23:14 436.750
KKS-1 30 Jul 04:30:25 04:34:30 36° 262° (W) 04:38:38 437.445
BEESAT 2 30 Jul 04:30:51 04:32:53 14° 250° (WSW) 04:34:54 435.950
PCSat 30 Jul 04:40:37 04:45:46 45° 247° (WSW) 04:50:53 145.827
STARS 30 Jul 05:00:27 05:04:27 34° 263° (W) 05:08:30 437.465
GONETS M04 30 Jul 05:12:29 05:14:20 11° 289° (WNW) 05:16:12
ITAMSAT 1 30 Jul 05:14:18 05:18:11 22° 298° (WNW) 05:22:04 435.822/435.867
CUBESAT XI-V 30 Jul 05:18:25 05:23:02 89° 265° (W) 05:27:39 437.345
AIST 2 30 Jul 05:18:44 05:22:55 84° 238° (WSW) 05:27:05 435.215
AO-7 30 Jul 05:38:38 05:46:45 58° 296° (WNW) 05:54:49 29.400- 29.500
HORYU 2 30 Jul 05:43:42 05:48:09 60° 101° (E) 05:52:33 437.375
NOAA 15 30 Jul 05:46:31 05:49:40 16° 90° (E) 05:52:48 137.62
RS-15 30 Jul 05:46:36 05:57:03 44° 108° (ESE) 06:08:01 29.354- 29.394
O/OREOS (USA 219) 30 Jul 05:46:52 05:51:24 64° 64° (ENE) 05:55:55 437.305
BRITE-PL 30 Jul 05:52:53 05:56:59 25° 95° (E) 06:01:17 437.365/2234.400
SO-50 30 Jul 06:10:19 06:11:12 10° 106° (ESE) 06:12:05 436.795
STRAND 1 30 Jul 06:28:21 06:32:58 35° 67° (ENE) 06:37:36 437.568
GOMX 1 30 Jul 06:38:16 06:42:55 33° 96° (E) 06:47:44 467.674
NOAA 18 30 Jul 06:39:09 06:44:14 35° 97° (E) 06:49:14 137.9125
Cosmos 2491 30 Jul 06:44:27 06:50:06 18° 59° (ENE) 06:55:42 435.465 / 435.565
Cubesat XI-IV 30 Jul 06:52:47 06:57:58 48° 100° (E) 07:03:05 437.490
CUTE-I 30 Jul 07:15:17 07:20:39 77° 103° (ESE) 07:25:58 437.470
LilacSat-2 30 Jul 07:15:27 07:19:21 86° 281° (W) 07:23:11 437.200
HORYU 2 30 Jul 07:21:37 07:24:13 15° 299° (WNW) 07:26:48 437.375
NOAA 15 30 Jul 07:24:41 07:29:56 69° 287° (WNW) 07:35:10 137.62
O/OREOS (USA 219) 30 Jul 07:28:03 07:30:14 13° 262° (W) 07:32:24 437.305
BRITE-PL 30 Jul 07:30:56 07:35:32 41° 289° (WNW) 07:40:27 437.365/2234.400
AO-7 30 Jul 07:33:36 07:37:46 15° 318° (NW) 07:41:55 29.400- 29.500
HO-68 30 Jul 07:35:54 07:40:53 20° 90° (E) 07:45:50 435.675
CINEMA 3 30 Jul 07:40:49 07:44:25 19° 91° (E) 07:47:57 145.822/145.860
SO-50 30 Jul 07:46:02 07:50:55 82° 122° (ESE) 07:55:47 436.795
DOVE 4 30 Jul 07:52:10 07:57:23 78° 102° (ESE) 08:02:42 437.250
RS-15 30 Jul 07:57:36 08:09:03 63° 312° (NW) 08:21:11 29.354- 29.394
CANX-2 30 Jul 08:02:04 08:05:29 24° 94° (E) 08:08:53 2200.000
STRAND 1 30 Jul 08:07:37 08:12:08 31° 264° (W) 08:16:41 437.568
YUBILEINY 30 Jul 08:14:04 08:20:33 24° 79° (E) 08:27:04 435.215
CUTE 1.7 + AOD 2 30 Jul 08:14:39 08:18:18 28° 95° (E) 08:21:55 437.475
GOMX 1 30 Jul 08:16:21 08:20:56 34° 291° (WNW) 08:25:42 467.674
NOAA 18 30 Jul 08:19:52 08:24:49 34° 295° (WNW) 08:29:44 137.9125
PRISM 30 Jul 08:21:07 08:25:06 57° 73° (ENE) 08:29:06 437.425
CUBEBUG 2 30 Jul 08:26:06 08:28:54 16° 89° (E) 08:31:40 437.445
Cubesat XI-IV 30 Jul 08:33:28 08:37:44 25° 297° (WNW) 08:41:57 437.490
Cosmos 2491 30 Jul 08:39:40 08:48:28 81° 81° (E) 08:57:17 435.465 / 435.565
SEEDS 30 Jul 08:47:21 08:51:22 45° 99° (E) 08:55:21 437.485
COMPASS 1 30 Jul 08:52:53 08:56:44 36° 97° (E) 09:00:33 437.405
UNISAT 6 30 Jul 08:54:41 08:57:09 14° 61° (ENE) 08:59:36 437.425
CUTE-I 30 Jul 08:56:51 09:00:03 16° 301° (WNW) 09:03:14 437.470
NOAA 15 30 Jul 09:07:57 09:08:45 10° 306° (NW) 09:09:31 137.62
CINEMA 3 30 Jul 09:16:56 09:21:50 53° 288° (WNW) 09:26:39 145.822/145.860
AAUSAT CUBESAT 2 30 Jul 09:17:40 09:21:43 55° 100° (E) 09:25:45 437.432
HO-68 30 Jul 09:22:08 09:29:22 80° 288° (WNW) 09:36:32 435.675
FUNcube-1 30 Jul 09:22:26 09:26:03 24° 93° (E) 09:29:34 145.935
ZACube-1 30 Jul 09:25:09 09:28:58 27° 94° (E) 09:32:41 437.345
SO-50 30 Jul 09:28:31 09:32:00 19° 322° (NW) 09:35:26 436.795
ANTELSAT 30 Jul 09:31:04 09:35:08 30° 68° (ENE) 09:39:15 437.575/2403.000
DOVE 4 30 Jul 09:31:24 09:34:28 16° 299° (WNW) 09:37:33 437.250
UWE-3 30 Jul 09:31:55 09:36:24 49° 99° (E) 09:40:44 435.000/436.395/437.385
CANX-2 30 Jul 09:37:39 09:41:22 30° 291° (WNW) 09:45:03 2200.000
Cosmos 2504 30 Jul 09:42:54 09:50:18 31° 83° (E) 09:57:36 435.465 / 435.565
CUTE 1.7 + AOD 2 30 Jul 09:50:33 09:54:03 26° 292° (WNW) 09:57:33 437.475
PRISM 30 Jul 09:59:06 10:00:46 12° 269° (W) 10:02:26 437.425
Oscar 11 30 Jul 09:59:39 10:03:57 64° 101° (E) 10:08:12 145.826/435.025
CUBEBUG 2 30 Jul 10:01:17 10:05:55 57° 287° (WNW) 10:10:23 437.445
YUBILEINY 30 Jul 10:07:33 10:16:21 77° 279° (W) 10:25:15 435.215
HUMSAT D 30 Jul 10:10:21 10:13:10 17° 92° (E) 10:15:57 437.325/437.525
TIGRISAT 30 Jul 10:11:02 10:15:39 72° 75° (ENE) 10:20:22 435.000
QB50P2 30 Jul 10:14:14 10:16:35 15° 62° (ENE) 10:18:57 145.880/145.840
RS-15 30 Jul 10:14:38 10:24:40 30° 343° (NNW) 10:35:02 29.354- 29.394
POLYITAN 1 30 Jul 10:16:47 10:19:12 15° 63° (ENE) 10:21:39 437.675
M-CUBED/EXP-1 PRIME 30 Jul 10:22:51 10:26:52 27° 100° (E) 10:30:49 437.505
SEEDS 30 Jul 10:24:02 10:26:43 17° 296° (WNW) 10:29:22 437.485
UNISAT 6 30 Jul 10:28:35 10:33:14 73° 258° (WSW) 10:37:58 437.425
COMPASS 1 30 Jul 10:29:02 10:32:03 20° 294° (WNW) 10:35:04 437.405
Cosmos 2491 30 Jul 10:38:03 10:44:15 22° 281° (WNW) 10:50:29 435.465 / 435.565
AUBIESAT-1 30 Jul 10:45:43 10:50:04 37° 102° (ESE) 10:54:17 437.475
DELFI C3 30 Jul 10:46:34 10:50:31 85° 283° (WNW) 10:54:28 145.870
AAUSAT CUBESAT 2 30 Jul 10:54:36 10:56:45 14° 297° (WNW) 10:58:54 437.432
NANOSAT C BR1 30 Jul 10:54:58 10:58:46 33° 69° (ENE) 11:02:37 145.865
DUCHIFAT 1 30 Jul 10:57:31 11:01:18 33° 69° (ENE) 11:05:09 145.980
FUNcube-1 30 Jul 10:58:19 11:02:21 33° 291° (WNW) 11:06:16 145.935
BUGSAT 1 30 Jul 10:59:02 11:01:33 16° 63° (ENE) 11:04:06 437.445
ZACube-1 30 Jul 11:01:19 11:05:14 30° 292° (WNW) 11:09:02 437.345
ANTELSAT 30 Jul 11:07:42 11:11:47 30° 265° (W) 11:15:56 437.575/2403.000
UWE-3 30 Jul 11:09:18 11:12:27 19° 297° (WNW) 11:15:33 435.000/436.395/437.385
HO-68 30 Jul 11:11:32 11:16:00 18° 308° (NW) 11:20:27 435.675
QB50P1 30 Jul 11:19:00 11:23:13 64° 74° (ENE) 11:27:27 145.935-145.965
POPSAT HIP 1 30 Jul 11:25:46 11:30:00 75° 76° (ENE) 11:34:18 437.405
Cosmos 2504 30 Jul 11:34:18 11:43:06 64° 282° (WNW) 11:51:49 435.465 / 435.565
CUBEBUG 1 30 Jul 11:36:18 11:39:20 18° 92° (E) 11:42:20 437.445
Oscar 11 30 Jul 11:37:27 11:39:33 13° 298° (WNW) 11:41:39 145.826/435.025
ESTCUBE 1 30 Jul 11:42:00 11:45:58 30° 96° (E) 11:49:56 437.505/2401.250
VELOX 1 30 Jul 11:44:18 11:47:27 19° 93° (E) 11:50:34 145.980
AO-85 30 Jul 11:44:48 11:46:19 11° 106° (ESE) 11:47:48 145.980
HUMSAT D 30 Jul 11:45:03 11:49:00 40° 289° (WNW) 11:52:51 437.325/437.525
JAS-2 30 Jul 11:45:53 11:51:20 43° 70° (ENE) 11:56:23 435.910
QB50P2 30 Jul 11:47:43 11:51:54 58° 259° (W) 11:56:10 145.880/145.840
POLYITAN 1 30 Jul 11:50:21 11:54:33 57° 259° (W) 11:58:48 437.675
TIGRISAT 30 Jul 11:50:49 11:52:51 13° 272° (W) 11:54:54 435.000
M-CUBED/EXP-1 PRIME 30 Jul 11:57:03 12:01:24 37° 296° (WNW) 12:05:41 437.505
YUBILEINY 30 Jul 12:09:26 12:14:50 17° 303° (WNW) 12:20:17 435.215
DX 1 30 Jul 12:16:12 12:20:00 28° 96° (E) 12:23:47 434.975-435.025
AUBIESAT-1 30 Jul 12:20:24 12:24:18 27° 299° (WNW) 12:28:10 437.475
UKube-1 30 Jul 12:23:11 12:26:52 26° 96° (E) 12:30:31 .
AISAT 30 Jul 12:28:38 12:33:03 57° 101° (E) 12:37:26 437.250
NANOSAT C BR1 30 Jul 12:31:12 12:34:33 23° 266° (W) 12:37:57 145.865
RS-15 30 Jul 12:31:56 12:42:20 30° 19° (NNE) 12:52:48 29.354- 29.394
BUGSAT 1 30 Jul 12:32:33 12:36:32 49° 261° (W) 12:40:35 437.445
DUCHIFAT 1 30 Jul 12:33:43 12:37:03 23° 266° (W) 12:40:27 145.980
50 SAT 30 Jul 12:45:41 12:49:18 83° 281° (W) 12:52:52 437.505
SPROUT 30 Jul 12:49:13 12:53:22 43° 99° (E) 12:57:28 437.525
QB50P1 30 Jul 12:57:48 12:59:25 12° 271° (W) 13:01:02 145.935-145.965
AO-7 30 Jul 12:59:36 13:03:15 14° 41° (NE) 13:06:55 29.400- 29.500
POPSAT HIP 1 30 Jul 13:06:02 13:06:18 10° 272° (W) 13:06:35 437.405
Oscar 19 30 Jul 13:10:52 13:15:57 68° 72° (ENE) 13:21:03 437.125/150
CUBEBUG 1 30 Jul 13:11:37 13:15:50 45° 288° (WNW) 13:20:02 437.445
ITAMSAT 1 30 Jul 13:17:03 13:19:32 14° 57° (ENE) 13:22:01 435.822/435.867
AIST 1 30 Jul 13:17:15 13:21:29 90° 167° (SSE) 13:25:47
ESTCUBE 1 30 Jul 13:18:54 13:22:42 28° 293° (WNW) 13:26:29 437.505/2401.250
VELOX 1 30 Jul 13:19:53 13:24:07 44° 289° (WNW) 13:28:21 145.980
Gurwin Techsat 1B 30 Jul 13:20:40 13:25:35 39° 68° (ENE) 13:30:31 435.225
AO-85 30 Jul 13:20:42 13:26:04 77° 122° (ESE) 13:31:11 145.980
TISAT 1 30 Jul 13:31:44 13:35:30 29° 96° (E) 13:39:13 437.305
JAS-2 30 Jul 13:31:47 13:36:36 26° 265° (W) 13:41:06 435.910
Cosmos 2504 30 Jul 13:34:02 13:38:24 14° 305° (NW) 13:42:46 435.465 / 435.565
DX 1 30 Jul 13:52:22 13:56:08 28° 293° (WNW) 13:59:53 434.975-435.025
CUSAT 1 30 Jul 13:53:19 13:56:10 30° 78° (ENE) 13:59:40 437.405
UKube-1 30 Jul 13:59:07 14:02:53 30° 292° (WNW) 14:06:38 .
BEESAT 30 Jul 14:00:50 14:02:43 12° 89° (E) 14:04:36 436.000
AISAT 30 Jul 14:06:20 14:09:04 16° 298° (WNW) 14:11:47 437.250
GONETS M04 30 Jul 14:17:40 14:25:09 34° 84° (E) 14:32:39
Cosmos 2499 30 Jul 14:24:42 14:31:49 28° 82° (E) 14:38:45 435.465 / 435.565
ITUPSAT 1 30 Jul 14:24:58 14:28:36 21° 93° (E) 14:32:12 437.325
SPROUT 30 Jul 14:25:57 14:28:59 19° 296° (WNW) 14:32:00 437.525
SO-50 30 Jul 14:37:04 14:40:14 18° 36° (NE) 14:43:21 436.795
RS-15 30 Jul 14:45:33 14:57:52 65° 49° (NE) 15:10:02 29.354- 29.394
AO-7 30 Jul 14:46:08 14:54:08 53° 63° (ENE) 15:02:10 29.400- 29.500
DANDE 30 Jul 14:50:41 14:53:14 37° 78° (ENE) 14:56:04 436.750
Oscar 19 30 Jul 14:52:50 14:55:45 15° 270° (W) 14:58:42 437.125/150
ITAMSAT 1 30 Jul 14:53:00 14:58:15 90° 82° (E) 15:03:31 435.822/435.867
Gurwin Techsat 1B 30 Jul 15:01:04 15:05:36 28° 265° (W) 15:10:11 435.225
AO-85 30 Jul 15:03:03 15:07:04 21° 320° (NW) 15:10:55 145.980
TISAT 1 30 Jul 15:07:30 15:11:02 26° 293° (WNW) 15:14:33 437.305
SWISSCUBE 30 Jul 15:15:18 15:20:05 76° 103° (ESE) 15:24:49 437.505
PHONESAT 2.4 30 Jul 15:20:42 15:22:33 15° 154° (SSE) 15:24:25 2401.200-2431.200
BEESAT 30 Jul 15:36:16 15:41:03 75° 286° (WNW) 15:45:46 436.000
CUSAT 1 30 Jul 15:36:23 15:38:04 13° 266° (W) 15:39:55 437.405
MOZHAYETS 4 30 Jul 15:45:09 15:48:25 19° 92° (E) 15:51:40
ITUPSAT 1 30 Jul 16:02:06 16:06:37 43° 291° (WNW) 16:11:06 437.325
GONETS M04 30 Jul 16:13:04 16:21:32 55° 284° (WNW) 16:30:06
Cosmos 2499 30 Jul 16:15:27 16:24:17 68° 281° (W) 16:32:50 435.465 / 435.565
SO-50 30 Jul 16:16:41 16:21:20 83° 240° (WSW) 16:25:51 436.795
KKS-1 30 Jul 16:19:47 16:24:00 38° 98° (E) 16:28:10 437.445
NOAA 18 30 Jul 16:30:06 16:32:14 12° 54° (NE) 16:34:23 137.9125
ITAMSAT 1 30 Jul 16:36:46 16:38:25 11° 272° (W) 16:40:03 435.822/435.867
Cubesat XI-IV 30 Jul 16:39:23 16:41:57 14° 57° (ENE) 16:44:31 437.490
AO-7 30 Jul 16:39:29 16:47:06 38° 262° (W) 16:54:47 29.400- 29.500
HORYU 2 30 Jul 16:42:29 16:46:55 64° 73° (ENE) 16:51:23 437.375
STARS 30 Jul 16:48:14 16:52:23 38° 98° (E) 16:56:31 437.465
SWISSCUBE 30 Jul 16:54:51 16:57:15 14° 300° (WNW) 16:59:38 437.505
PHONESAT 2.4 30 Jul 16:55:41 16:58:35 39° 170° (S) 17:01:30 2401.200-2431.200
RS-15 30 Jul 16:58:41 17:09:53 43° 252° (WSW) 17:20:57 29.354- 29.394
CUTE-I 30 Jul 17:00:14 17:04:07 21° 61° (ENE) 17:07:59 437.470
BRITE-PL 30 Jul 17:05:53 17:09:20 26° 67° (ENE) 17:12:51 437.365/2234.400
NOAA 15 30 Jul 17:07:14 17:11:43 29° 65° (ENE) 17:16:12 137.62
CUBESAT XI-V 30 Jul 17:14:27 17:17:56 21° 93° (E) 17:21:24 437.345
MOZHAYETS 4 30 Jul 17:21:27 17:25:48 44° 289° (WNW) 17:30:06
PCSat 30 Jul 17:41:36 17:45:23 20° 106° (ESE) 17:49:10 145.827
GOMX 1 30 Jul 17:48:15 17:52:02 33° 69° (ENE) 17:56:01 467.674
KKS-1 30 Jul 17:56:49 18:00:20 23° 295° (WNW) 18:03:50 437.445
LilacSat-2 30 Jul 17:58:10 18:01:57 53° 73° (ENE) 18:05:45 437.200
NOAA 18 30 Jul 18:06:25 18:11:56 75° 73° (ENE) 18:17:31 137.9125
HO-68 30 Jul 18:07:01 18:11:43 19° 53° (NE) 18:16:25 435.675
BEESAT 3 30 Jul 18:07:53 18:11:48 81° 306° (NW) 18:15:46 437.485
Cosmos 2499 30 Jul 18:14:25 18:19:06 15° 303° (WNW) 18:23:44 435.465 / 435.565
Cubesat XI-IV 30 Jul 18:15:50 18:21:13 87° 74° (ENE) 18:26:38 437.490
GONETS M04 30 Jul 18:18:17 18:20:45 11° 309° (NW) 18:23:15
BEESAT 2 30 Jul 18:21:41 18:25:38 76° 122° (ESE) 18:29:37 435.950
HORYU 2 30 Jul 18:21:48 18:23:54 13° 270° (W) 18:26:01 437.375
YUBILEINY 30 Jul 18:22:44 18:26:01 12° 52° (NE) 18:29:18 435.215
STARS 30 Jul 18:25:04 18:28:31 22° 295° (WNW) 18:31:58 437.465
PHONESAT 2.4 30 Jul 18:31:54 18:34:52 44° 186° (S) 18:37:49 2401.200-2431.200
CUTE-I 30 Jul 18:38:24 18:43:42 60° 259° (W) 18:49:02 437.470
CINEMA 3 30 Jul 18:43:44 18:47:03 20° 63° (ENE) 18:50:28 145.822/145.860
BRITE-PL 30 Jul 18:44:19 18:47:49 26° 265° (W) 18:51:23 437.365/2234.400
NOAA 15 30 Jul 18:46:31 18:51:21 38° 262° (W) 18:56:14 137.62
CUBESAT XI-V 30 Jul 18:51:08 18:55:28 42° 289° (WNW) 18:59:49 437.345
CANX-2 30 Jul 18:56:11 18:59:23 21° 66° (ENE) 19:02:34 2200.000
DOVE 4 30 Jul 18:58:55 19:03:16 84° 75° (ENE) 19:07:55 437.250
CUTE 1.7 + AOD 2 30 Jul 19:08:32 19:11:59 24° 67° (ENE) 19:15:25 437.475
AIST 2 30 Jul 19:18:59 19:21:16 15° 110° (ESE) 19:23:35 435.215
PCSat 30 Jul 19:22:53 19:28:15 64° 304° (WNW) 19:33:40 145.827
CUBEBUG 2 30 Jul 19:25:21 19:28:15 17° 62° (ENE) 19:31:11 437.445
GOMX 1 30 Jul 19:26:54 19:30:15 22° 268° (W) 19:33:43 467.674
LilacSat-2 30 Jul 19:35:01 19:36:34 12° 270° (W) 19:38:07 437.200
ISS 30 Jul 19:36:25 19:39:02 23° 136° (SE) 19:41:41 145.825
Cosmos 2504 30 Jul 19:37:51 19:38:35 10° 50° (NE) 19:39:19 435.465 / 435.565
SEEDS 30 Jul 19:40:00 19:43:53 37° 70° (ENE) 19:47:46 437.485
COMPASS 1 30 Jul 19:44:45 19:48:22 29° 69° (ENE) 19:51:58 437.405
BEESAT 3 30 Jul 19:48:26 19:50:08 12° 324° (NW) 19:51:51 437.485
Cosmos 2491 30 Jul 19:49:33 19:54:56 18° 76° (ENE) 20:00:19 435.465 / 435.565
NOAA 18 30 Jul 19:49:56 19:53:10 16° 270° (W) 19:56:26 137.9125
HO-68 30 Jul 19:51:14 19:58:25 85° 72° (ENE) 20:05:40 435.675
Cubesat XI-IV 30 Jul 19:59:47 20:01:59 12° 272° (W) 20:04:10 437.490
O/OREOS (USA 219) 30 Jul 20:00:12 20:04:35 60° 109° (ESE) 20:09:00 437.305
BEESAT 2 30 Jul 20:01:35 20:03:58 15° 321° (NW) 20:06:21 435.950
PHONESAT 2.4 30 Jul 20:08:38 20:10:59 20° 203° (SSW) 20:13:20 2401.200-2431.200
AAUSAT CUBESAT 2 30 Jul 20:08:46 20:12:41 42° 72° (ENE) 20:16:36 437.432
AO-85 30 Jul 20:12:44 20:15:22 15° 34° (NE) 20:17:52 145.980
STRAND 1 30 Jul 20:16:03 20:21:12 82° 104° (ESE) 20:26:17 437.568
YUBILEINY 30 Jul 20:16:24 20:25:08 58° 76° (ENE) 20:33:45 435.215
FUNcube-1 30 Jul 20:18:53 20:22:28 23° 66° (ENE) 20:26:05 145.935
CINEMA 3 30 Jul 20:19:19 20:23:46 50° 262° (W) 20:28:28 145.822/145.860
ZACube-1 30 Jul 20:21:48 20:25:36 26° 67° (ENE) 20:29:25 437.345
UWE-3 30 Jul 20:29:26 20:33:51 46° 71° (ENE) 20:38:20 435.000/436.395/437.385
CANX-2 30 Jul 20:31:02 20:35:00 37° 263° (W) 20:39:00 2200.000
CUTE 1.7 + AOD 2 30 Jul 20:43:53 20:47:41 31° 264° (W) 20:51:30 437.475
Oscar 11 30 Jul 20:55:08 20:59:23 56° 74° (ENE) 21:03:40 145.826/435.025
AIST 2 30 Jul 20:55:15 20:59:18 57° 307° (NW) 21:03:24 435.215
CUBEBUG 2 30 Jul 20:59:45 21:04:20 61° 260° (W) 21:09:04 437.445
HUMSAT D 30 Jul 21:03:04 21:05:42 16° 64° (ENE) 21:08:20 437.325/437.525
PCSat 30 Jul 21:09:55 21:12:45 14° 325° (NW) 21:15:38 145.827
M-CUBED/EXP-1 PRIME 30 Jul 21:10:15 21:13:51 35° 63° (ENE) 21:17:44 437.505
ISS 30 Jul 21:12:06 21:15:17 50° 333° (NNW) 21:18:29 145.825
SEEDS 30 Jul 21:16:35 21:19:42 20° 267° (W) 21:22:49 437.485
COMPASS 1 30 Jul 21:20:28 21:23:54 24° 265° (W) 21:27:21 437.405
Cosmos 2504 30 Jul 21:26:25 21:34:21 53° 75° (ENE) 21:41:39 435.465 / 435.565
AUBIESAT-1 30 Jul 21:32:35 21:36:24 50° 67° (ENE) 21:40:33 437.475
DELFI C3 30 Jul 21:33:10 21:37:06 63° 75° (ENE) 21:41:01 145.870
PRISM 30 Jul 21:36:25 21:40:32 80° 103° (ESE) 21:44:39 437.425
O/OREOS (USA 219) 30 Jul 21:41:30 21:44:24 17° 308° (NW) 21:47:19 437.305
Cosmos 2491 30 Jul 21:41:44 21:50:28 88° 97° (E) 21:59:14 435.465 / 435.565
HO-68 30 Jul 21:42:18 21:46:58 18° 271° (W) 21:51:41 435.675
AAUSAT CUBESAT 2 30 Jul 21:45:38 21:48:21 17° 268° (W) 21:51:05 437.432
AO-85 30 Jul 21:52:08 21:56:35 87° 54° (NE) 22:00:39 145.980
FUNcube-1 30 Jul 21:54:14 21:58:28 38° 263° (W) 22:02:47 145.935
STRAND 1 30 Jul 21:57:02 21:59:41 14° 302° (WNW) 22:02:19 437.568
ZACube-1 30 Jul 21:57:36 22:01:44 34° 264° (W) 22:05:55 437.345
TIGRISAT 30 Jul 22:03:12 22:05:36 14° 89° (E) 22:07:58 435.000
UWE-3 30 Jul 22:07:13 22:10:32 19° 269° (W) 22:13:54 435.000/436.395/437.385
YUBILEINY 30 Jul 22:13:55 22:21:25 33° 277° (W) 22:28:53 435.215
UNISAT 6 30 Jul 22:19:59 22:23:36 22° 93° (E) 22:27:07 437.425
Oscar 11 30 Jul 22:33:35 22:35:53 14° 270° (W) 22:38:10 145.826/435.025
CUBEBUG 1 30 Jul 22:33:46 22:36:40 18° 64° (ENE) 22:39:34 437.445
HUMSAT D 30 Jul 22:36:42 22:40:55 52° 260° (W) 22:45:08 437.325/437.525
AIST 2 30 Jul 22:37:51 22:38:41 10° 328° (NNW) 22:39:31 435.215
ESTCUBE 1 30 Jul 22:42:35 22:46:34 32° 69° (ENE) 22:50:34 437.505/2401.250
VELOX 1 30 Jul 22:42:56 22:46:07 20° 64° (ENE) 22:49:17 145.980
M-CUBED/EXP-1 PRIME 30 Jul 22:45:31 22:48:30 21° 263° (W) 22:51:41 437.505
ISS 30 Jul 22:49:44 22:52:15 20° 353° (N) 22:54:47 145.825
ANTELSAT 30 Jul 22:57:40 23:02:12 54° 100° (E) 23:06:36 437.575/2403.000
AUBIESAT-1 30 Jul 23:08:58 23:11:15 15° 265° (W) 23:13:37 437.475
DELFI C3 30 Jul 23:11:37 23:12:21 10° 271° (W) 23:13:05 145.870
POPSAT HIP 1 30 Jul 23:11:45 23:13:04 11° 89° (E) 23:14:24 437.405
DX 1 30 Jul 23:12:50 23:16:34 29° 67° (ENE) 23:20:18 434.975-435.025
PRISM 30 Jul 23:14:35 23:15:13 10° 300° (WNW) 23:15:52 437.425
UKube-1 30 Jul 23:18:52 23:22:28 27° 67° (ENE) 23:26:05 .
Cosmos 2504 30 Jul 23:20:29 23:27:15 31° 277° (W) 23:33:37 435.465 / 435.565
AIST 1 30 Jul 23:23:20 23:26:57 25° 73° (ENE) 23:30:33
50 SAT 30 Jul 23:24:00 23:27:32 49° 73° (ENE) 23:31:04 437.505
AISAT 30 Jul 23:26:52 23:31:10 57° 73° (ENE) 23:35:31 437.250
QB50P2 30 Jul 23:32:07 23:35:22 21° 93° (E) 23:38:36 145.880/145.840
POLYITAN 1 30 Jul 23:34:43 23:38:01 21° 94° (E) 23:41:17 437.675
TIGRISAT 30 Jul 23:38:09 23:42:44 61° 287° (WNW) 23:47:10 435.000
Cosmos 2491 30 Jul 23:42:20 23:48:33 21° 299° (WNW) 23:54:50 435.465 / 435.565
SPROUT 30 Jul 23:43:44 23:47:41 38° 70° (ENE) 23:51:41 437.525
UNISAT 6 30 Jul 23:56:09 00:00:26 38° 291° (WNW) 00:04:36 437.425
CUBEBUG 1 31 Jul 00:08:27 00:12:36 46° 261° (W) 00:16:47 437.445
NANOSAT C BR1 31 Jul 00:13:19 00:17:30 51° 100° (E) 00:21:39 145.865
BUGSAT 1 31 Jul 00:13:34 00:16:54 22° 94° (E) 00:20:13 437.445
DUCHIFAT 1 31 Jul 00:15:33 00:19:43 51° 100° (E) 00:23:51 145.980
VELOX 1 31 Jul 00:18:07 00:22:17 42° 261° (W) 00:26:29 145.980
ESTCUBE 1 31 Jul 00:19:39 00:23:24 25° 265° (W) 00:27:09 437.505/2401.250
TISAT 1 31 Jul 00:24:35 00:28:04 26° 67° (ENE) 00:31:36 437.305
GONETS M04 31 Jul 00:26:13 00:31:54 18° 58° (ENE) 00:37:34
ISS 31 Jul 00:26:46 00:29:28 23° 13° (NNE) 00:32:09 145.825
ANTELSAT 31 Jul 00:35:27 00:38:28 17° 297° (WNW) 00:41:26 437.575/2403.000
JAS-2 31 Jul 00:37:21 00:42:12 33° 97° (E) 00:47:27 435.910
QB50P1 31 Jul 00:38:08 00:42:27 80° 283° (WNW) 00:46:43 145.935-145.965
POPSAT HIP 1 31 Jul 00:45:02 00:49:19 68° 286° (WNW) 00:53:34 437.405
BEESAT 3 31 Jul 00:47:52 00:49:41 13° 36° (NE) 00:51:30 437.485
SWISSCUBE 31 Jul 00:48:13 00:50:20 13° 59° (ENE) 00:52:26 437.505
DX 1 31 Jul 00:49:01 00:52:42 27° 264° (W) 00:56:25 434.975-435.025
